sat.trackr.live / text

‹ back to catalog

SHIYAN-30 03

NORAD 68139 · 2026-048A

PAYLOAD ACTIVE UNKNOWN

§ Identity

Operator
Country
PRC
Launch date
2026-03-12
Launch site
XICLF
Launch vehicle
Mass (kg)
RCS (m²)

External: N2YO · Heavens-Above · Gunter

§ Orbital elements

Epoch: 2026-05-24T22:28:32.767968Z

Period
96.53 min
Inclination
35.0010°
Eccentricity
0.0004221
Mean motion
14.91730656 rev/d
Perigee alt
589.6 km
Apogee alt
595.5 km
Semi-major
6,970.7 km
B*
1.6582e-4
RAAN
47.1968°
Arg perigee
159.9586°
Mean anomaly
200.1286°
Rev number
1,089

§ Raw data

SHIYAN-30 031 68139U 26048A   26144.93649037  .00001674  00000+0  16582-3 0  99972 68139  35.0010  47.1968 0004221 159.9586 200.1286 14.91730656 10894

JSON: /api/v1/satellites/68139 · /tle

For live sub-satellite position, see the globe view (requires WebGL).

§ Visibility from observer

Set your observer location to see the next 7 days of passes ≥ 10°. The values pass through the URL so the page stays shareable.

No JS? Fill the form by hand. The geolocation button needs JavaScript.